2BLGY LPFR-EGNH

Flight info

Callsign 2BLGY
Flight time N/A
Altitude 43000
Route ALAGU DCT ELVAR DCT BABOV DCT BARDI DCT ZMR DCT NUBLO DCT RONSI DCT DELOG DCT NOZHU DCT SHIRI DCT TOJAQ DCT EPACE DCT ACCOP DCT MOCQO P16 PEPZE DCT WAL
Aircraft PC24/M-SBDGIRWY/LB2

Departure

Time N/A
Airport Faro - Gago Coutinho International Airport (LPFR)

Arrival

Time 2026-04-28 12:24
Airport Blackpool Airport (EGNH)
Time Latitude Longitude Altitude Speed Heading
2026-04-28 11:46 50.43007 -3.67578 43290 ft 381 kts
2026-04-28 11:46 50.45635 -3.67066 43283 ft 381 kts
2026-04-28 11:46 50.50896 -3.66079 43297 ft 382 kts
2026-04-28 11:47 50.56179 -3.65070 43299 ft 383 kts
2026-04-28 11:47 50.61451 -3.64067 43298 ft 383 kts
2026-04-28 11:48 50.66726 -3.63058 43292 ft 382 kts
2026-04-28 11:48 50.72019 -3.62045 43296 ft 382 kts
2026-04-28 11:49 50.77307 -3.61030 43303 ft 382 kts
2026-04-28 11:49 50.82598 -3.60013 43301 ft 384 kts
2026-04-28 11:50 50.87868 -3.58997 43295 ft 382 kts
2026-04-28 11:50 50.93128 -3.57981 43297 ft 380 kts
2026-04-28 11:51 50.98395 -3.56960 43303 ft 381 kts
2026-04-28 11:51 51.03670 -3.55937 43308 ft 382 kts
2026-04-28 11:52 51.08948 -3.54909 43316 ft 383 kts
2026-04-28 11:52 51.14213 -3.53884 43319 ft 384 kts
2026-04-28 11:53 51.19519 -3.52846 43319 ft 384 kts
2026-04-28 11:53 51.24825 -3.51807 43320 ft 383 kts
2026-04-28 11:54 51.30121 -3.50767 43319 ft 383 kts
2026-04-28 11:54 51.35398 -3.49728 43351 ft 381 kts
2026-04-28 11:55 51.40650 -3.48693 43345 ft 380 kts
2026-04-28 11:55 51.45910 -3.47652 43351 ft 380 kts
2026-04-28 11:56 51.51167 -3.46610 43345 ft 380 kts
2026-04-28 11:56 51.56431 -3.45564 43343 ft 379 kts
2026-04-28 11:57 51.61660 -3.44523 43341 ft 378 kts
2026-04-28 11:57 51.66885 -3.43480 43337 ft 379 kts
2026-04-28 11:58 51.72122 -3.42432 43365 ft 380 kts
2026-04-28 11:58 51.77373 -3.41380 43368 ft 380 kts
2026-04-28 11:59 51.82632 -3.40323 43369 ft 381 kts
2026-04-28 11:59 51.87888 -3.39264 43362 ft 381 kts
2026-04-28 12:00 51.93140 -3.38235 43355 ft 380 kts
2026-04-28 12:00 51.98404 -3.37875 43368 ft 380 kts
2026-04-28 12:01 52.01041 -3.37659 43178 ft 377 kts
2026-04-28 12:01 52.03669 -3.37465 42205 ft 382 kts
2026-04-28 12:01 52.06323 -3.37288 41453 ft 381 kts
2026-04-28 12:01 52.08955 -3.37101 40751 ft 377 kts
2026-04-28 12:02 52.11576 -3.36906 40041 ft 375 kts
2026-04-28 12:02 52.14171 -3.36715 39341 ft 372 kts
2026-04-28 12:02 52.16751 -3.36530 38504 ft 369 kts
2026-04-28 12:02 52.19306 -3.36348 37613 ft 366 kts
2026-04-28 12:03 52.21831 -3.36165 36726 ft 361 kts
2026-04-28 12:03 52.24327 -3.35983 35798 ft 357 kts 10°
2026-04-28 12:03 52.26791 -3.35805 34918 ft 351 kts 11°
2026-04-28 12:03 52.29219 -3.35628 33937 ft 347 kts 12°
2026-04-28 12:04 52.31625 -3.35448 32700 ft 345 kts 12°
2026-04-28 12:04 52.34026 -3.35269 31355 ft 346 kts 12°
2026-04-28 12:04 52.36433 -3.35091 29919 ft 346 kts 12°
2026-04-28 12:04 52.38842 -3.34918 28806 ft 340 kts 11°
2026-04-28 12:05 52.41187 -3.34758 28133 ft 341 kts 11°
2026-04-28 12:05 52.43600 -3.34555 27494 ft 350 kts 11°
2026-04-28 12:05 52.46018 -3.34388 27137 ft 349 kts 10°
2026-04-28 12:05 52.48483 -3.34206 26663 ft 356 kts
2026-04-28 12:06 52.50971 -3.34022 26228 ft 360 kts
2026-04-28 12:06 52.53427 -3.33845 25766 ft 356 kts
2026-04-28 12:06 52.55896 -3.33666 25301 ft 353 kts
2026-04-28 12:06 52.58336 -3.33485 24838 ft 351 kts
2026-04-28 12:07 52.60775 -3.33300 24378 ft 350 kts
2026-04-28 12:07 52.63194 -3.33053 23913 ft 346 kts 12°
2026-04-28 12:07 52.65556 -3.32467 23431 ft 342 kts 14°
2026-04-28 12:07 52.67907 -3.31872 22979 ft 341 kts 14°
2026-04-28 12:08 52.70250 -3.31295 22532 ft 339 kts 14°
2026-04-28 12:08 52.72580 -3.30698 22066 ft 339 kts 14°
2026-04-28 12:08 52.74914 -3.30095 21653 ft 341 kts 14°
2026-04-28 12:08 52.77250 -3.29500 21207 ft 338 kts 14°
2026-04-28 12:09 52.79567 -3.28911 20768 ft 336 kts 14°
2026-04-28 12:09 52.81875 -3.28319 20325 ft 335 kts 14°
2026-04-28 12:09 52.84170 -3.27733 19887 ft 333 kts 14°
2026-04-28 12:09 52.86459 -3.27144 19449 ft 332 kts 14°
2026-04-28 12:10 52.88739 -3.26558 19020 ft 331 kts 14°
2026-04-28 12:10 52.90245 -3.26171 18732 ft 330 kts 14°
2026-04-28 12:10 52.92506 -3.25589 18272 ft 328 kts 14°
2026-04-28 12:10 52.94750 -3.25018 17841 ft 326 kts 14°
2026-04-28 12:11 52.96990 -3.24437 17400 ft 326 kts 14°
2026-04-28 12:11 52.99231 -3.23857 16988 ft 326 kts 14°
2026-04-28 12:11 53.01462 -3.23282 16556 ft 322 kts 14°
2026-04-28 12:11 53.03679 -3.22712 16141 ft 321 kts 14°
2026-04-28 12:12 53.05884 -3.22138 15718 ft 321 kts 13°
2026-04-28 12:12 53.08088 -3.21566 15298 ft 319 kts 14°
2026-04-28 12:12 53.10283 -3.21000 14879 ft 318 kts 13°
2026-04-28 12:12 53.12438 -3.20440 14468 ft 317 kts 13°
2026-04-28 12:13 53.14637 -3.19868 14026 ft 314 kts 13°
2026-04-28 12:13 53.16790 -3.19309 13607 ft 312 kts 13°
2026-04-28 12:13 53.18935 -3.18750 13193 ft 312 kts 14°
2026-04-28 12:13 53.21075 -3.18192 12769 ft 311 kts 13°
2026-04-28 12:14 53.23212 -3.17634 12376 ft 311 kts 13°
2026-04-28 12:14 53.25318 -3.17082 11974 ft 309 kts 13°
2026-04-28 12:14 53.27400 -3.16546 11570 ft 292 kts 13°
2026-04-28 12:14 53.29334 -3.16047 11191 ft 272 kts 14°
2026-04-28 12:15 53.31181 -3.15557 10843 ft 265 kts 14°
2026-04-28 12:15 53.32988 -3.15079 10500 ft 262 kts 14°
2026-04-28 12:15 53.34789 -3.14602 10142 ft 262 kts 14°
2026-04-28 12:15 53.36593 -3.14130 9790 ft 262 kts 14°
2026-04-28 12:16 53.38392 -3.13662 9445 ft 262 kts 13°
2026-04-28 12:16 53.40233 -3.13571 9097 ft 267 kts
2026-04-28 12:16 53.42089 -3.13814 8750 ft 268 kts
2026-04-28 12:16 53.43949 -3.14033 8240 ft 271 kts
2026-04-28 12:17 53.45802 -3.14267 7680 ft 263 kts
2026-04-28 12:17 53.47610 -3.14498 7308 ft 260 kts
2026-04-28 12:17 53.49415 -3.14721 6964 ft 260 kts
2026-04-28 12:17 53.51218 -3.14946 6608 ft 260 kts
2026-04-28 12:18 53.53024 -3.15172 6262 ft 260 kts
2026-04-28 12:18 53.54827 -3.15398 5919 ft 260 kts
2026-04-28 12:18 53.56630 -3.15624 5576 ft 260 kts
2026-04-28 12:18 53.58433 -3.15850 5235 ft 260 kts
2026-04-28 12:19 53.60234 -3.16077 4876 ft 258 kts 360°
2026-04-28 12:19 53.62012 -3.16301 4545 ft 255 kts 360°
2026-04-28 12:19 53.63779 -3.16524 4208 ft 253 kts 359°
2026-04-28 12:19 53.65526 -3.16743 3874 ft 251 kts 359°
2026-04-28 12:20 53.67269 -3.16962 3539 ft 250 kts 359°
2026-04-28 12:20 53.69003 -3.17180 3204 ft 249 kts 359°
2026-04-28 12:20 53.70704 -3.17398 2873 ft 247 kts 359°
2026-04-28 12:20 53.72405 -3.17612 2549 ft 244 kts 359°
2026-04-28 12:21 53.74092 -3.17807 2154 ft 240 kts
2026-04-28 12:21 53.75639 -3.17328 1922 ft 214 kts 17°
2026-04-28 12:21 53.76997 -3.16631 1706 ft 196 kts 28°
2026-04-28 12:21 53.77985 -3.15156 1380 ft 188 kts 61°
2026-04-28 12:22 53.78129 -3.13075 1101 ft 177 kts 104°
2026-04-28 12:22 53.77643 -3.11345 888 ft 146 kts 106°
2026-04-28 12:22 53.77443 -3.09792 839 ft 127 kts 91°
2026-04-28 12:22 53.77389 -3.08282 678 ft 121 kts 90°
2026-04-28 12:23 53.77342 -3.06820 427 ft 131 kts 93°
2026-04-28 12:23 53.77275 -3.05347 238 ft 117 kts 92°
2026-04-28 12:23 53.77213 -3.04033 50 ft 107 kts 93°
2026-04-28 12:23 53.77165 -3.02943 33 ft 79 kts 94°
2026-04-28 12:24 53.77131 -3.02381 32 ft 19 kts 105°
2026-04-28 12:24 53.77130 -3.02303 32 ft 4 kts 315°
2026-04-28 12:24 53.77134 -3.02371 32 ft 9 kts 270°
2026-04-28 12:24 53.77141 -3.02511 32 ft 13 kts 274°
2026-04-28 12:25 53.77150 -3.02686 31 ft 17 kts 275°
2026-04-28 12:25 53.77160 -3.02889 32 ft 17 kts 275°
2026-04-28 12:25 53.77236 -3.02993 33 ft 15 kts 343°
2026-04-28 12:25 53.77335 -3.03042 33 ft 15 kts 344°
2026-04-28 12:26 53.77429 -3.03089 33 ft 14 kts 342°
2026-04-28 12:26 53.77465 -3.03190 34 ft 12 kts 247°
2026-04-28 12:26 53.77432 -3.03321 34 ft 12 kts 248°
2026-04-28 12:26 53.77400 -3.03455 34 ft 12 kts 247°
2026-04-28 12:27 53.77400 -3.03574 34 ft 10 kts 347°
2026-04-28 12:27 53.77470 -3.03562 34 ft 10 kts
2026-04-28 12:27 53.77536 -3.03546 34 ft 10 kts
2026-04-28 12:27 53.77601 -3.03551 34 ft 9 kts 347°
2026-04-28 12:28 53.77661 -3.03582 34 ft 9 kts 345°
2026-04-28 12:28 53.77720 -3.03610 34 ft 9 kts 345°
2026-04-28 12:28 53.77779 -3.03640 35 ft 9 kts 338°
2026-04-28 12:28 53.77833 -3.03675 35 ft 8 kts 348°
2026-04-28 12:29 53.77866 -3.03721 35 ft 0 kts 253°